Zurück zum Katalog

DELTA 1 DEB

AktivPO
NORAD 21446·DEBRIS·🇺🇸 United States

Gestartet Jun 12, 1975 von Vandenberg Space Force Base

Loading…

Nächste Überflüge (nächste 24 Stunden)

TLE

AktuellSource: Space-Track

Epoche: Sep 14, 2026, 11:05 UTC

1 21446U 75052EE  26257.46240949 -.00000032  00000-0  16605-4 0  9994
2 21446  99.6965 131.5139 0373405 221.2508 269.8362 12.71794046640779

Verfolge DELTA 1 DEB in Echtzeit mit AllMySat

Download on the App Store